GLOBAL-15 (49470 NORAD) Tracking and Keplerian Element Data

This shows tracking and keplerian element data for the satellite.

Feedback or suggestion? Click here.




ElementValue
Catalog49470
NameGLOBAL-15
Epoch Orbit280
Epoch Day340.19499327
Epoch Year2021
RAAN269.7815
Inclination42.018
Eccentricity0.0007968
Argument of Perigee31.797
Mean Anonmoly328.1957
Mean Motion15.44876604
Decay Rate0.00012739
L11 49470U 21106B 21340.19499327 .00012739 00000+0 27019-3 0 9991
L22 49470 42.0180 269.7815 0007968 31.7970 328.1957 15.44876604 2806

Live tracking and technical data element details for GLOBAL-15 (NORAD 49470). GLOBAL-15 can be tracked NOW for your location showing map with azimuth and elevation plus other details from your city location.

Track the satellite on the map from your city or location and see movement details for azimuth, elevation, latitude, longitude, range, height, and movement on the map or in text.







IsCatalogInMostPopularTable: catalog: 49470, numindb: 3
Update: records affected: 1



GetName: 49470 GLOBAL-15

Hit Count: updated at: Wed, 08 Dec 2021 16:15:11 GMT